[[{"header":{"parameterUnit":"m.s-1","parameterCategory":1,"la1":30.2991,"la2":30.254,"lo1":-89.0895,"lo2":-89.0444,"dx":0.0017,"dy":0.0017,"nx":28,"ny":28,"refTime":"2023-01-23T03:00:00:Z","depth":0,"parameterNumber":2,"parameterNumberName":"U-component_of_WINDS"},"data":[0,0,0,0,0,0,0,0,0,0,0,0,0,0,0,0,0,0,0,0,0,0,0,0,0,0,0,0,0,0,0,0,0,0,0,0,0,0,0,0,0,0,0,0,0,0,0,0,0,0,0,0,0,0,0,0,0,0,-5.5235,-5.5236,0,-5.5272,-5.5273,-5.5273,-5.5071,-5.5065,-5.5059,-5.5054,-5.5095,-5.5101,-5.5108,0,0,0,0,0,0,0,0,0,0,0,0,0,-5.4991,-5.4996,-5.5235,-5.5236,-5.5236,-5.5272,-5.5273,-5.5273,-5.5072,-5.5065,-5.5058,-5.5051,-5.5093,-5.5101,-5.5108,0,0,0,0,0,0,0,0,0,0,0,0,0,-5.507,-5.4998,-5.5235,-5.514,-5.5132,-5.5272,-5.5273,-5.5273,-5.5073,-5.5064,-5.5056,-5.5048,-5.509,-5.51,-5.5109,-5.5344,0,0,-5.5139,-5.5144,0,0,0,0,0,0,0,0,-5.5065,-5.5079,-5.5153,-5.5147,-5.5138,-5.5158,-5.5201,-5.5297,-5.5075,-5.5096,-5.5053,-5.5043,-5.5123,-5.513,-5.5156,-5.5346,-5.5348,-5.514,-5.5146,-5.515,-5.5153,0,0,0,0,0,0,0,-5.506,-5.5076,-5.525,-5.5155,-5.5145,-5.5095,-5.5097,-5.5219,-5.5158,-5.5093,-5.5078,-5.5085,-5.5117,-5.5147,-5.5155,-5.5349,-5.514,-5.5149,-5.5155,-5.5158,-5.5732,-5.574,0,0,0,0,0,0,-5.5067,-5.5073,-5.5249,-5.5251,-5.5079,-5.5107,-5.5109,-5.516,-5.5156,-5.5147,-5.5093,-5.5076,-5.5135,-5.5144,-5.5156,-5.5429,-5.515,-5.5159,-5.5165,-5.5722,-5.5734,-5.5744,0,0,0,0,0,0,-5.5063,-5.5085,-5.5247,-5.5158,-5.5175,-5.512,-5.518,-5.5166,-5.5195,-5.5156,-5.5144,-5.5134,-5.5128,-5.5142,-5.5298,-5.5428,-5.5164,-5.5173,-5.5711,-5.5726,-5.5739,-5.598,0,0,0,0,0,0,-5.5056,-5.5084,-5.5173,-5.5161,-5.518,-5.539,-5.5188,-5.5173,-5.5212,-5.519,-5.5192,-5.5184,-5.5122,-5.5285,-5.5308,-5.5437,-5.518,-5.5699,-5.5718,-5.5734,-5.596,-5.6,-5.6035,0,0,0,0,0,-5.5048,-5.5241,-5.5179,-5.5201,-5.529,-5.5397,-5.5408,-5.5333,-5.5224,-5.5312,-5.5286,-5.5184,-5.541,-5.5303,-5.5327,-5.5461,-5.5691,-5.5713,-5.5733,-5.5943,-5.5992,-5.6034,0,0,0,0,0,0,-5.527,-5.5237,-5.5168,-5.5362,-5.5384,-5.5363,-5.5472,-5.5388,-5.5442,-5.5419,-5.5324,-5.5326,-5.5498,-5.5495,-5.5376,-5.5687,-5.5531,-5.5559,-5.5683,-5.5729,-5.5766,-5.5763,-5.5189,0,0,0,0,0,-5.5342,-5.5431,-5.5397,-5.5572,-5.5586,-5.5528,-5.5572,-5.5512,-5.5531,-5.5539,-5.5525,-5.5548,-5.5624,-5.5676,-5.5744,-5.5958,-5.5955,-5.6062,-5.6099,-5.613,-5.6155,-5.6266,-5.6313,-5.5813,-5.5813,-5.5812,0,0,-5.5491,-5.5483,-5.5546,-5.5616,-5.5626,-5.5721,-5.5537,-5.5646,-5.5715,-5.5556,-5.5702,-5.5693,-5.5712,-5.5898,-5.5979,-5.59,-5.6292,-5.6157,-5.6182,-5.619,-5.6293,-5.634,-5.6382,-5.5827,-5.5825,-5.5822,0,0,-5.581,-5.5814,-5.5958,-5.5971,-5.5988,-5.5947,-5.5982,-5.5974,-5.5961,-5.6106,-5.5988,-5.6069,-5.6202,-5.622,-5.6247,-5.6571,-5.6479,-5.6596,-5.6792,-5.6902,-5.6941,-5.6975,-5.709,-5.7133,-5.6621,-5.6621,-5.6622,0,-5.5993,-5.613,-5.6044,-5.616,-5.6194,-5.6052,-5.6198,-5.6215,-5.6254,-5.6281,-5.6192,-5.6355,-5.6358,-5.6545,-5.6624,-5.6651,-5.6687,-5.6596,-5.6942,-5.6976,-5.7007,-5.7115,-5.7159,-5.6636,-5.6634,-5.6632,-5.6631,0,-5.6354,-5.6451,-5.6566,-5.6605,-5.6652,-5.6783,-5.6716,-5.6774,-5.671,-5.6679,-5.6827,-5.6826,-5.689,-5.693,-5.6869,-5.7109,-5.7059,-5.6958,-5.68,-5.707,-5.717,-5.7211,-5.6656,-5.6651,-5.6647,-5.6643,0,0,-5.6816,-5.6803,-5.6847,-5.6862,-5.6869,-5.6942,-5.7066,-5.7127,-5.7179,-5.721,-5.7311,-5.7426,-5.7331,-5.7362,-5.7301,-5.7398,-5.7653,-5.7284,-5.7283,-5.7352,-5.7916,-5.7992,-5.8042,-5.7591,-5.7599,-5.7605,-5.7914,0,-5.7127,-5.7336,-5.7262,-5.7476,-5.7564,-5.743,-5.7537,-5.7554,-5.7528,-5.7599,-5.757,-5.7653,-5.7523,-5.754,-5.7629,-5.7604,-5.7765,-5.758,-5.7685,-5.769,-5.7684,-5.8094,-5.8175,-5.8467,-5.7953,-5.796,-5.7964,0,-5.7518,-5.7563,-5.7786,-5.7776,-5.781,-5.7908,-5.7957,-5.8027,-5.8042,-5.8016,-5.805,-5.7968,-5.8088,-5.793,-5.8095,-5.7971,-5.8009,-5.8002,-5.8012,-5.8019,-5.7844,-5.8112,-5.8558,-5.8602,-5.8025,-5.802,-5.8016,0,-5.7832,-5.7948,-5.8095,-5.8113,-5.8105,-5.8176,-5.8177,-5.8183,-5.8224,-5.8267,-5.8293,-5.8351,-5.8383,-5.8429,-5.8365,-5.8256,-5.8539,-5.8376,-5.8521,-5.8523,-5.8587,-5.8584,-5.9046,-5.8613,-5.8612,-5.8611,-5.861,0,-5.8187,-5.8329,-5.8236,-5.8327,-5.8481,-5.8394,-5.8549,-5.8534,-5.8541,-5.8626,-5.8515,-5.8598,-5.8508,-5.8583,-5.8533,-5.8676,-5.8692,-5.8675,-5.866,-5.8684,-5.8687,-5.8708,-5.8686,-5.8623,-5.862,-5.8618,-5.8616,0,-5.8563,-5.8507,-5.8659,-5.8638,-5.8636,-5.8751,-5.8732,-5.8816,-5.8781,-5.8891,-5.8912,-5.8859,-5.8941,-5.8881,-5.8963,-5.893,-5.9118,-5.9075,-5.9113,-5.9101,-5.9249,-5.9236,-5.974,-5.9802,-5.9331,-5.9335,-5.9339,0,-5.8793,-5.8899,-5.8888,-5.8937,-5.8944,-5.9024,-5.9065,-5.8983,-5.903,-5.9054,-5.9135,-5.9207,-5.926,-5.9397,-5.9366,-5.9428,-5.9385,-5.9558,-5.9394,-5.9415,-5.9387,-5.9381,-5.939,-5.9591,-5.9597,-5.9601,-5.9605,0,-5.9208,-5.9174,-5.9236,-5.929,-5.9341,-5.9379,-5.9408,-5.9455,-5.9371,-5.943,-5.9511,-5.9553,-5.9635,-5.9708,-5.9758,-5.9758,-5.9669,-5.9657,-5.9693,-5.9719,-5.9736,-5.9728,-5.9202,-5.9645,-5.9641,-5.9638,-5.9636,-5.9635,-5.9517,-5.9604,-5.9609,-5.9682,-5.9695,-5.9725,-5.9801,-5.9776,-5.9842,-5.9901,-5.9849,-5.9947,-5.9958,-6.0015,-6.0026,-6.0102,-6.0031,-6.0084,-6.0098,-6.0112,-6.0133,-5.9725,-6.0111,-6.011,-6.0108,-6.0107,-6.0106,0,-5.9924,-5.9921,-5.9989,-6.0032,-6.009,-5.9998,-6.0026,-6.008,-6.0167,-6.0184,-6.0238,-6.0331,-6.0401,-6.0375,-6.0436,-6.0502,-6.0462,-6.0521,-6.0515,-6.0516,-6.0193,-6.0155,-6.0551,-6.0551,-6.0551,-6.0551,-6.0551,-6.0551,-6.0143,-6.0284,-6.0252,-6.0398,-6.0393,-6.0487,-6.051,-6.0537,-6.0549,-6.0658,-6.0715,-6.0697,-6.0696,-6.0756,-6.0816,-6.0806,-6.0834,-6.0908,-6.0884,-6.0583,-6.0539,-6.0497,-6.046,-6.0915,-6.0915,-6.12,-6.1202,-6.1204]},{"header":{"parameterUnit":"m.s-1","parameterCategory":1,"la1":30.2991,"la2":30.254,"lo1":-89.0895,"lo2":-89.0444,"dx":0.0017,"dy":0.0017,"nx":28,"ny":28,"refTime":"2023-01-23T03:00:00:Z","depth":0,"parameterNumber":3,"parameterNumberName":"V-component_of_WINDS"},"data":[0,0,0,0,0,0,0,0,0,0,0,0,0,0,0,0,0,0,0,0,0,0,0,0,0,0,0,0,0,0,0,0,0,0,0,0,0,0,0,0,0,0,0,0,0,0,0,0,0,0,0,0,0,0,0,0,0,0,-1.3865,-1.3865,0,-1.3891,-1.3891,-1.3891,-1.3921,-1.3921,-1.3922,-1.3922,-1.3946,-1.3946,-1.3946,0,0,0,0,0,0,0,0,0,0,0,0,0,-1.3838,-1.3838,-1.3865,-1.3865,-1.3866,-1.3891,-1.3891,-1.3891,-1.3921,-1.3921,-1.3922,-1.3922,-1.3946,-1.3946,-1.3946,0,0,0,0,0,0,0,0,0,0,0,0,0,-1.3855,-1.3838,-1.3865,-1.3883,-1.3885,-1.3891,-1.3891,-1.3891,-1.3921,-1.3921,-1.3922,-1.3923,-1.3946,-1.3946,-1.3946,-1.3935,0,0,-1.3947,-1.3947,0,0,0,0,0,0,0,0,-1.3854,-1.3856,-1.388,-1.3882,-1.3884,-1.3903,-1.389,-1.3906,-1.3921,-1.3907,-1.3922,-1.3923,-1.3931,-1.3933,-1.3936,-1.3936,-1.3937,-1.3947,-1.3948,-1.3948,-1.3948,0,0,0,0,0,0,0,-1.3853,-1.3855,-1.3875,-1.3881,-1.3883,-1.3889,-1.3892,-1.3893,-1.3915,-1.3908,-1.3911,-1.3913,-1.3932,-1.3935,-1.3937,-1.3937,-1.3947,-1.3948,-1.3948,-1.3948,-1.3926,-1.3925,0,0,0,0,0,0,-1.3849,-1.3854,-1.3874,-1.3876,-1.3871,-1.3889,-1.3893,-1.3896,-1.3915,-1.3919,-1.3913,-1.3915,-1.3935,-1.3936,-1.3938,-1.3923,-1.3948,-1.3948,-1.3948,-1.3926,-1.3925,-1.3924,0,0,0,0,0,0,-1.3848,-1.3851,-1.3873,-1.3865,-1.3869,-1.3889,-1.3893,-1.3897,-1.39,-1.3918,-1.3922,-1.3912,-1.3935,-1.3937,-1.3935,-1.3924,-1.3948,-1.3948,-1.3927,-1.3926,-1.3925,-1.3895,0,0,0,0,0,0,-1.3848,-1.385,-1.3847,-1.3865,-1.3869,-1.3871,-1.3892,-1.3897,-1.3901,-1.3903,-1.3919,-1.3922,-1.3936,-1.3934,-1.3935,-1.3925,-1.3949,-1.3928,-1.3927,-1.3925,-1.3897,-1.3893,-1.3889,0,0,0,0,0,-1.3847,-1.3838,-1.3847,-1.3849,-1.3866,-1.3871,-1.3873,-1.3889,-1.39,-1.3896,-1.3907,-1.3922,-1.3925,-1.3934,-1.3935,-1.3925,-1.3929,-1.3927,-1.3925,-1.3899,-1.3894,-1.389,0,0,0,0,0,0,-1.3818,-1.3841,-1.3851,-1.3848,-1.3857,-1.3876,-1.3871,-1.3884,-1.389,-1.3892,-1.3912,-1.3915,-1.3909,-1.3917,-1.3926,-1.3913,-1.3929,-1.3927,-1.3908,-1.3904,-1.39,-1.3898,-1.3949,0,0,0,0,0,-1.3811,-1.3815,-1.3834,-1.3829,-1.3833,-1.3851,-1.3854,-1.3866,-1.3876,-1.388,-1.3891,-1.3899,-1.3902,-1.3903,-1.3907,-1.3898,-1.3901,-1.3892,-1.3888,-1.3885,-1.3883,-1.3876,-1.3872,-1.3919,-1.3919,-1.3919,0,0,-1.3798,-1.3811,-1.3811,-1.3824,-1.3832,-1.3833,-1.3854,-1.3855,-1.3856,-1.388,-1.3878,-1.3886,-1.3896,-1.389,-1.3887,-1.3896,-1.3871,-1.3883,-1.388,-1.388,-1.3874,-1.3869,-1.3866,-1.3918,-1.3918,-1.3918,0,0,-1.3773,-1.3784,-1.3781,-1.3788,-1.3801,-1.3812,-1.3811,-1.3827,-1.3834,-1.3832,-1.3849,-1.3849,-1.3855,-1.386,-1.3864,-1.3839,-1.3851,-1.3839,-1.382,-1.3813,-1.3809,-1.3806,-1.3795,-1.3791,-1.3838,-1.3838,-1.3837,0,-1.3755,-1.3758,-1.3777,-1.3776,-1.378,-1.3802,-1.3797,-1.3803,-1.3816,-1.3817,-1.3827,-1.3832,-1.384,-1.3834,-1.3828,-1.3831,-1.3828,-1.3838,-1.3808,-1.3805,-1.3802,-1.3792,-1.3788,-1.3836,-1.3836,-1.3836,-1.3836,0,-1.3733,-1.3735,-1.3731,-1.3742,-1.3745,-1.3743,-1.3759,-1.376,-1.3771,-1.3781,-1.3778,-1.3788,-1.3794,-1.3793,-1.3804,-1.3788,-1.3792,-1.3805,-1.3821,-1.3796,-1.3786,-1.3783,-1.3834,-1.3834,-1.3835,-1.3835,0,0,-1.3693,-1.3713,-1.3711,-1.3715,-1.3729,-1.373,-1.3727,-1.3733,-1.3732,-1.3739,-1.3736,-1.3739,-1.3749,-1.3753,-1.3765,-1.3759,-1.3736,-1.3772,-1.3772,-1.3763,-1.3715,-1.3705,-1.37,-1.3744,-1.3744,-1.3743,-1.3714,0,-1.367,-1.3667,-1.3682,-1.3674,-1.3674,-1.3694,-1.3691,-1.3698,-1.3707,-1.3707,-1.3717,-1.3718,-1.3733,-1.3735,-1.373,-1.374,-1.3726,-1.3742,-1.3739,-1.3739,-1.3735,-1.3696,-1.3685,-1.3657,-1.371,-1.371,-1.3709,0,-1.3643,-1.3648,-1.364,-1.3652,-1.3653,-1.365,-1.3655,-1.3656,-1.3663,-1.367,-1.3673,-1.3686,-1.3682,-1.3698,-1.3691,-1.3702,-1.3702,-1.3706,-1.3705,-1.3704,-1.3722,-1.3692,-1.3649,-1.3644,-1.3704,-1.3705,-1.3705,0,-1.3611,-1.3617,-1.3612,-1.3615,-1.363,-1.3627,-1.3632,-1.3641,-1.3642,-1.3646,-1.3646,-1.365,-1.3651,-1.3652,-1.3665,-1.3676,-1.3656,-1.3674,-1.3659,-1.3659,-1.3654,-1.3654,-1.3608,-1.3656,-1.3656,-1.3656,-1.3656,0,-1.3583,-1.3577,-1.3598,-1.3595,-1.3587,-1.3604,-1.3596,-1.3604,-1.3611,-1.3608,-1.3625,-1.3622,-1.364,-1.3638,-1.3648,-1.3639,-1.364,-1.3644,-1.3646,-1.3642,-1.3641,-1.3641,-1.3642,-1.3655,-1.3655,-1.3655,-1.3656,0,-1.3547,-1.3561,-1.3557,-1.357,-1.3573,-1.3567,-1.3578,-1.3574,-1.3584,-1.358,-1.358,-1.3594,-1.3593,-1.3606,-1.3607,-1.3613,-1.3599,-1.3606,-1.3597,-1.3598,-1.3583,-1.3583,-1.3534,-1.3527,-1.3581,-1.3581,-1.358,0,-1.3528,-1.3523,-1.3536,-1.3535,-1.354,-1.3539,-1.354,-1.3556,-1.3556,-1.3563,-1.3558,-1.3558,-1.3559,-1.3555,-1.3565,-1.3565,-1.3571,-1.3554,-1.3571,-1.3565,-1.3568,-1.3568,-1.3566,-1.355,-1.3549,-1.3548,-1.3548,0,-1.3491,-1.3497,-1.3499,-1.3501,-1.3502,-1.3505,-1.3509,-1.3507,-1.3524,-1.3523,-1.3522,-1.3522,-1.3522,-1.3521,-1.3523,-1.3528,-1.3539,-1.3542,-1.3539,-1.3533,-1.3527,-1.3528,-1.3585,-1.3543,-1.3544,-1.3544,-1.3544,-1.3545,-1.3462,-1.3457,-1.3465,-1.3465,-1.3469,-1.3472,-1.3468,-1.3477,-1.3476,-1.3478,-1.3487,-1.3483,-1.3488,-1.3492,-1.3495,-1.3491,-1.3499,-1.3495,-1.3493,-1.3491,-1.3487,-1.3529,-1.3492,-1.3492,-1.3492,-1.3492,-1.3492,0,-1.3424,-1.3429,-1.3429,-1.3433,-1.3433,-1.3445,-1.3449,-1.3447,-1.3444,-1.3448,-1.3448,-1.3445,-1.3443,-1.3452,-1.3451,-1.3446,-1.3451,-1.3445,-1.3445,-1.3445,-1.3481,-1.3484,-1.344,-1.344,-1.344,-1.344,-1.344,-1.3441,-1.3405,-1.3397,-1.3404,-1.3398,-1.3403,-1.34,-1.3401,-1.3402,-1.3405,-1.3401,-1.34,-1.3406,-1.3411,-1.341,-1.3408,-1.3411,-1.3409,-1.34,-1.3404,-1.3438,-1.3443,-1.3448,-1.345,-1.34,-1.34,-1.3368,-1.3368,-1.3367]}]]